Regional Weather Roundup
Issued by NWS

Home | Current Version | Previous Version | Text Only | Print | Product List | Glossary Off
Versions: 1 2 3 4 5 6 7 8 9 10 11 12 13 14 15 16 17 18 19 20 21 22 23 24 25 26 27 28 29 30 31 32 33 34 35 36 37 38 39 40 41 42 43 44 45 46 47 48 49 50

000
ASUS43 KMPX 172110
RWRMN
WEATHER ROUNDUP FOR MINNESOTA
NATIONAL WEATHER SERVICE TWIN CITIES/CHANHASSEN MN
300 PM CST WED DEC 17 2014


NOTE: "FAIR" INDICATES FEW OR NO CLOUDS BELOW 12,000 FEET WITH NO
SIGNIFICANT WEATHER AND/OR OBSTRUCTIONS TO VISIBILITY. N/A MEANS
CURRENT SKY AND/OR WEATHER CONDITIONS ARE NOT AVAILABLE.

MNZ060>063-068>070-172200-
   Twin Cities Metro

CITY           SKY/WX    TMP DP  RH WIND       PRES   REMARKS
TWIN CITIES    MOSUNNY   19  10  68 N9        30.29S WCI   8
ST PAUL        MOSUNNY   19  11  70 N7        30.31S WCI  10
CRYSTAL        PTSUNNY   19  10  68 N8        30.28F WCI   9
BLAINE         PTSUNNY   19  12  73 N6        30.29S WCI  11
LAKEVILLE      SUNNY     18  10  73 N5        30.28R WCI  11
EDEN PRAIRIE   SUNNY     20   9  62 NW7       30.28R WCI  11
SOUTH ST PAUL  MOSUNNY   19  11  70 N6        30.29S WCI  11
LAKE ELMO      CLOUDY    18  12  79 NE6       30.30S WCI   9
$$
MNZ001>005-007-008-013>017-022>024-027-028-172200-
   Northwest Minnesota

CITY           SKY/WX    TMP DP  RH WIND       PRES   REMARKS
BEMIDJI        SUNNY     20  13  73 NW6       30.28R WCI  13
HALLOCK        CLEAR     18  10  73 CALM      30.35S
ROSEAU         CLOUDY    16   9  73 CALM      30.33S
WARROAD        CLOUDY    12   7  79 CALM      30.33S
THIEF RVR FALL CLOUDY    16  12  86 NW3       30.32S
CROOKSTON      MOSUNNY   18  12  79 N3        30.34F
FOSSTON        MOSUNNY   19  12  73 CALM      30.30F
DETROIT LAKES  MIX PCPN  16  12  86 N6        30.29S WCI   7
MOORHEAD       SUNNY     18  16  93 N5        30.32F WCI  11
PARK RAPIDS    SUNNY     22  12  65 VRB3      30.26S
MAHNOMEN       FAIR      14  10  83 NE3       30.29F
$$
MNZ006-009>011-018-025>026-172200-
   North Central Minnesota

CITY           SKY/WX    TMP DP  RH WIND       PRES   REMARKS
BAUDETTE       CLEAR     19  10  68 NW6       30.30S WCI  11
FLAG ISLAND    CLEAR     16   9  73 CALM      30.32R
INTL FALLS     CLEAR     19   5  54 N6        30.30R WCI  11
WASKISH        CLEAR     19  14  79 CALM      30.30R
BIG FORK       CLEAR     21  10  63 CALM      30.27S
LONGVILLE      SUNNY     19  10  68 CALM      30.28R
GRAND RAPIDS   CLEAR     19  10  68 NW8       30.26R WCI   9
CRANE LAKE     CLEAR     19   7  58 N3        30.30S
ORR            CLEAR     21   9  58 CALM      30.24S
COOK           CLEAR     19  10  68 N3        30.26S
WALKER         FAIR      19  10  68 N3        30.27S
$$
MNZ012-019>021-037-172200-
   Northeast Minnesota

CITY           SKY/WX    TMP DP  RH WIND       PRES   REMARKS
DULUTH         CLOUDY    20  11  68 N7        30.24R WCI  11
ELY            PTCLDY    18  10  73 N5        30.25R WCI  11
HIBBING        CLEAR     22  10  60 N8        30.25R WCI  12
EVELETH        PTCLDY    21  12  68 NE7       30.25S WCI  13
DULUTH HARBOR  CLOUDY    21  12  68 CALM      30.31R
TWO HARBORS    CLOUDY    25  16  68 N3        30.24R
SILVER BAY     CLOUDY    25  16  68 N3        30.23R
GRAND MARAIS     N/A     21  10  62 N8        30.27R WCI  11
G MARAIS ARPRT CLOUDY    12   5  73 N15G23    30.19R WCI  -4
$$
MNZ029>031-032-039>041-046>048-054>057-064-172200-
   West Central Minnesota

CITY           SKY/WX    TMP DP  RH WIND       PRES   REMARKS
FERGUS FALLS   SUNNY     16   9  73 N5        30.32F WCI   9
WHEATON        SUNNY     12   9  85 W7        30.33S WCI   2
MORRIS         SUNNY     18  10  73 N9        30.28R WCI   6
ALEXANDRIA     SUNNY     17  10  74 N9        30.26F WCI   6
ELBOW LAKE     FAIR      14   9  81 N7        30.28F WCI   4
WADENA         SUNNY     18  10  73 CALM      30.27S
GLENWOOD       SUNNY     18  12  79 NW6       30.26F WCI   9
APPLETON       SUNNY     18  12  79 CALM      30.31R
BENSON         SUNNY     18  10  73 NE8       30.29S WCI   7
ORTONVILLE     SUNNY     16   9  73 N7        30.30S WCI   6
MADISON        SUNNY     18  12  79 NW3       30.31S
WILLMAR        FAIR      19  10  68 N7        30.29R WCI  10
$$
MNZ033>034-036-042>043-049>051-058-059-172200-
   Central Minnesota

CITY           SKY/WX    TMP DP  RH WIND       PRES   REMARKS
ST CLOUD       MOSUNNY   19   9  65 N7        30.28F WCI  10
SAUK CENTRE    FAIR      17  10  75 NW5       30.27F WCI  10
PAYNESVILLE    SUNNY     15  10  80 NW5       30.28S WCI   7
AITKIN         SUNNY     21  10  63 CALM      30.26S
PINE RIVER     SUNNY     18  10  73 N5        30.30S WCI  11
BRAINERD       SUNNY     18   9  68 N6        30.28S WCI  10
STAPLES        MOSUNNY   18  10  73 CALM      30.27F
LONG PRAIRIE   FAIR      18  10  73 NW5       30.27S WCI  11
LITTLE FALLS   CLOUDY    18  10  73 N3        30.29S
LITCHFIELD     SUNNY     19  14  79 N7        30.28S WCI  10
BUFFALO        SUNNY     19  11  70 N7        30.30R WCI  10
MAPLE LAKE     MOSUNNY   19  13  77 N7        30.29R WCI  10
$$
MNZ037-044-045-052-053-172200-
   East Central Minnesota

CITY           SKY/WX    TMP DP  RH WIND       PRES   REMARKS
PRINCETON      FLURRIES  18  10  73 CALM      30.29R
MORA           MOSUNNY   18   9  68 N3        30.30S
CAMBRIDGE      PTSUNNY   19   9  63 CALM      30.28R
RUSH CITY      CLOUDY    19  10  68 N5        30.29S WCI  12
MOOSE LAKE     LGT SNOW  19  12  73 N5        30.27R WCI  13
HINCKLEY       CLOUDY    21  12  68 CALM      30.28S
CLOQUET        FLURRIES  18  10  73 CALM      30.26R
MCGREGOR       CLOUDY    19  12  73 NW3       30.28R
$$
MNZ071>073-080-081-089-090-097-098-172200-
   Southwest Minnesota

CITY           SKY/WX    TMP DP  RH WIND       PRES   REMARKS
MONTEVIDEO     MOSUNNY   19  18  93 N5        30.31S WCI  13
GRANITE FALLS  SUNNY     15  11  84 W7        30.32S WCI   5
CANBY          SUNNY     17  13  84 NW5       30.30F WCI  10
MARSHALL       SUNNY     14   9  79 NW5       30.28F WCI   6
REDWOOD FALLS  SUNNY     19  12  74 NW8       30.29S WCI   9
OLIVIA         SUNNY     21  14  73 NW6       30.28S WCI  14
PIPESTONE      SUNNY     16  12  86 W2        30.24S
WINDOM         SUNNY     18  12  79 CALM      30.26S
WORTHINGTON    MOSUNNY   18  12  79 N5        30.25S WCI  11
JACKSON        MOSUNNY   21  14  73 N3        30.25S
TRACY          SUNNY     15  11  84 CALM      30.28S
SLAYTON        SUNNY     16  14  89 CALM      30.26R
$$
MNZ065>067-074>077-082>085-091>093-172200-
   South Central Minnesota

CITY           SKY/WX    TMP DP  RH WIND       PRES   REMARKS
MANKATO        MOSUNNY   19  10  68 NW8       30.28S WCI   9
NEW ULM        SUNNY     18  12  79 NW5       30.28F WCI  11
ST JAMES       SUNNY     19  14  79 NW6       30.29S WCI  11
FAIRMONT       SUNNY     19  12  73 NW8       30.26S WCI   9
GLENCOE        SUNNY     21  15  79 NW5       30.28S WCI  14
FARIBAULT      SUNNY     19  12  73 NW7       30.28R WCI  10
OWATONNA       MOSUNNY   19  14  79 N6        30.26S WCI  11
WASECA         SUNNY     19  14  79 NW8       30.28S WCI   9
ALBERT LEA     SUNNY     21  16  79 N9        30.24F WCI  11
$$
MNZ078>079-086>088-094>096-172200-
   Southeast Minnesota

CITY           SKY/WX    TMP DP  RH WIND       PRES   REMARKS
ROCHESTER      PTSUNNY   19  13  77 NW7       30.25R WCI  10
RED WING       FLURRIES  21  10  63 N6        30.28S WCI  14
STANTON        SUNNY     20  12  69 N7        30.27R WCI  11
DODGE CENTER   PTSUNNY   19  16  86 N7        30.25R WCI  10
WINONA         PTSUNNY   23  14  68 N9        30.30S WCI  13
AUSTIN         SUNNY     21  14  73 NW8       30.24F WCI  12
PRESTON        MOSUNNY   20  13  76 NW8       30.25S WCI  10
$$
ABBREVIATIONS USED IN REMARKS
   TC - TEMPERATURES IN CELSIUS
  WCI - WIND CHILL INDEX
   HX - HEAT INDEX
  VSB - VISIBILITY
$$



USA.gov is the U.S. government's official web portal to all federal, state and local government web resources and services.